Homer, AK

11:50 AM AKST on December 06, 2019 (GMT -0900)
Homer

Weather History for PAHO - November, 2019

Change the Weather History Date:

Sunday, November 17, 2019

  Actual Average Record
Temperature  
Mean Temperature 36 °F -  
Max Temperature 39 °F 36 °F 52 °F (2014)
Min Temperature 34 °F 24 °F 1 °F (1956)
Degree Days  
Heating Degree Days 28    
Moisture  
Dew Point 28 °F    
Average Humidity 70    
Maximum Humidity 79    
Minimum Humidity 64    
Precipitation  
Precipitation 0.00 in - - ()
Sea Level Pressure  
Sea Level Pressure 29.45 in    
Wind  
Wind Speed 12 mph (WSW)    
Max Wind Speed 18 mph    
Max Gust Speed 28 mph    
Visibility 10 miles    
Events Snow    
Averages and records for this station are not official NWS values.
T = Trace of Precipitation, MM = Missing Value Source: NWS Daily Summary

Daily Weather History Graph

Daily Weather History Graph

Search for Another Location

Airport or City:

Astronomy

Nov. 17, 2019 Rise Set
Actual Time 9:06 AM AKST 4:34 PM AKST
Civil Twilight 8:17 AM AKST 5:23 PM AKST
Nautical Twilight 7:26 AM AKST 6:14 PM AKST
Astronomical Twilight 6:37 AM AKST 7:03 PM AKST
Moon 9:02 PM AKST (11/17) 2:23 PM AKST (11/17)
Length of Visible Light 9h 05m
Length of Day
7h 27m
Waning Gibbous, 72% of the Moon is Illuminated
Nov 17
Waning Gibbous
Nov 19
Last Quarter
Nov 26
New
Dec 3
First Quarter
Dec 11
Full

Hourly Weather History & Observations

Time (AKST) Temp. Windchill Dew Point Humidity Pressure Visibility Wind Dir Wind Speed Gust Speed Precip Events Conditions
1:53 AM 37.0 °F 30.4 °F 28.0 °F 70% 29.26 in 10.0 mi WSW 9.2 mph 18.4 mph N/A   Scattered Clouds
2:53 AM 34.0 °F 31.0 °F 27.0 °F 75% 29.27 in 10.0 mi Variable 3.5 mph - N/A   Partly Cloudy
3:53 AM 37.9 °F 28.9 °F 28.9 °F 70% 29.28 in 10.0 mi WSW 16.1 mph - N/A   Mostly Cloudy
4:53 AM 37.9 °F 28.5 °F 28.9 °F 70% 29.28 in 10.0 mi SW 17.3 mph 27.6 mph N/A   Scattered Clouds
5:53 AM 39.0 °F 29.9 °F 30.0 °F 70% 29.29 in 10.0 mi WSW 17.3 mph 24.2 mph N/A   Partly Cloudy
7:53 AM 37.9 °F 29.2 °F 28.9 °F 70% 29.33 in 10.0 mi WSW 15.0 mph 23.0 mph N/A   Overcast
8:53 AM 37.9 °F 29.2 °F 28.0 °F 68% 29.35 in 10.0 mi WSW 15.0 mph 26.5 mph N/A   Mostly Cloudy
9:53 AM 37.9 °F 29.6 °F 28.0 °F 68% 29.37 in 10.0 mi WSW 13.8 mph - N/A   Mostly Cloudy
10:28 AM 37.9 °F 29.6 °F 28.9 °F 70% 29.37 in 10.0 mi WSW 13.8 mph - N/A   Overcast
10:38 AM 37.9 °F 29.2 °F 28.9 °F 70% 29.38 in 10.0 mi SW 15.0 mph - N/A   Overcast
10:53 AM 37.9 °F 29.2 °F 28.9 °F 70% 29.39 in 10.0 mi WSW 15.0 mph - N/A   Overcast
11:53 AM 37.9 °F 28.9 °F 28.9 °F 70% 29.41 in 10.0 mi WSW 16.1 mph - N/A   Mostly Cloudy
12:53 PM 37.9 °F 28.2 °F 28.9 °F 70% 29.42 in 10.0 mi WSW 18.4 mph 23.0 mph N/A   Mostly Cloudy
2:53 PM 37.9 °F 29.6 °F 28.0 °F 68% 29.47 in 10.0 mi WSW 13.8 mph 19.6 mph N/A   Overcast
3:53 PM 37.0 °F 28.9 °F 27.0 °F 67% 29.49 in 10.0 mi West 12.7 mph - N/A   Overcast
4:53 PM 36.0 °F 28.0 °F 27.0 °F 70% 29.51 in 10.0 mi West 11.5 mph 18.4 mph 0.00 in   Overcast
5:53 PM 36.0 °F 29.0 °F 25.0 °F 64% 29.54 in 10.0 mi WSW 9.2 mph - 0.00 in   Overcast
6:53 PM 35.1 °F 29.3 °F 25.0 °F 67% 29.55 in 10.0 mi WSW 6.9 mph - N/A   Overcast
7:53 PM 35.1 °F 27.9 °F 26.1 °F 70% 29.57 in 6.0 mi WSW 9.2 mph - 0.00 in Snow Light Snow
8:53 PM 34.0 °F 29.8 °F 28.0 °F 79% 29.58 in 10.0 mi North 4.6 mph - 0.00 in   Overcast
9:53 PM 35.1 °F 29.3 °F 28.0 °F 76% 29.59 in 10.0 mi WSW 6.9 mph - N/A   Overcast
10:21 PM 35.1 °F 29.3 °F 26.1 °F 70% 29.59 in 10.0 mi WSW 6.9 mph - N/A   Overcast
10:53 PM 35.1 °F 29.3 °F 26.1 °F 70% 29.61 in 10.0 mi West 6.9 mph - N/A   Overcast
11:35 PM 35.1 °F 30.1 °F 26.1 °F 70% 29.61 in 10.0 mi WSW 5.8 mph - N/A   Overcast
11:53 PM 34.0 °F 26.6 °F 25.0 °F 70% 29.62 in 10.0 mi SW 9.2 mph - N/A   Overcast